Weather History for La Junta, CO

Change the Weather History Date:

Friday, September 27, 2013

  Actual Average Record
Temperature  
Mean Temperature 69 °F 62 °F  
Max Temperature 90 °F 78 °F 98 °F (1953)
Min Temperature 47 °F 47 °F 33 °F (1945)
Degree Days  
Heating Degree Days 0 5  
Month to date heating degree days 2 53  
Since 1 July heating degree days 2 57  
Cooling Degree Days 4 2  
Month to date cooling degree days 247 134  
Year to date cooling degree days 1648 1212  
Growing Degree Days 20 (Base 50)    
Moisture  
Dew Point 42 °F    
Average Humidity 50    
Maximum Humidity 83    
Minimum Humidity 16    
Precipitation  
Precipitation 0.02 in 0.02 in 2.10 in (1966)
Month to date precipitation 0.71 0.75  
Year to date precipitation 4.72 9.83  
Sea Level Pressure  
Sea Level Pressure 29.58 in    
Wind  
Wind Speed 16 mph (WSW)    
Max Wind Speed 39 mph    
Max Gust Speed 47 mph    
Visibility 10 miles    
Events Rain    
T = Trace of Precipitation, MM = Missing Value Source: NWS Daily Summary

Daily Weather History Graph

Daily Weather History Graph

Search for Another Location

Airport:

Trip Planner

Search our weather history database for the weather conditions in past years. The results will help you decide how hot, cold, wet, or windy it might be!

Date:

Astronomy

Sep. 27, 2013 Rise Set
Actual Time 6:46 AM MDT 6:42 PM MDT
Civil Twilight 6:20 AM MDT 7:08 PM MDT
Nautical Twilight 5:49 AM MDT 7:39 PM MDT
Astronomical Twilight 5:18 AM MDT 8:10 PM MDT
Moon No Moon Rise 2:17 PM MDT (9/27)
Length of Visible Light 12h 48m
Length of Day
11h 56m
Last Quarter, 44% of the Moon is Illuminated
Sep 27
Last Quarter
Oct 4
New
Oct 11
First Quarter
Oct 18
Full
Oct 26
Last Quarter

Hourly Weather History & Observations

Time (MDT) Temp. Dew Point Humidity Pressure Visibility Wind Dir Wind Speed Gust Speed Precip Events Conditions
12:53 AM 77.0 °F 39.9 °F 26% 29.49 in 10.0 mi SSW 18.4 mph 31.1 mph N/A   Clear
1:53 AM 73.0 °F 39.9 °F 30% 29.51 in 10.0 mi SW 17.3 mph - N/A   Clear
2:53 AM 68.0 °F 39.9 °F 36% 29.52 in 10.0 mi SSW 13.8 mph - N/A   Clear
3:53 AM 68.0 °F 39.0 °F 35% 29.53 in 10.0 mi SW 11.5 mph - N/A   Clear
4:53 AM 64.9 °F 39.0 °F 39% 29.56 in 10.0 mi SW 9.2 mph - N/A   Clear
5:53 AM 64.0 °F 37.9 °F 38% 29.56 in 10.0 mi SSW 9.2 mph - N/A   Clear
6:53 AM 66.0 °F 36.0 °F 33% 29.56 in 10.0 mi South 10.4 mph - N/A   Clear
7:53 AM 70.0 °F 37.9 °F 31% 29.55 in 10.0 mi South 12.7 mph - N/A   Clear
8:53 AM 75.9 °F 39.9 °F 27% 29.55 in 10.0 mi South 20.7 mph 27.6 mph N/A   Clear
9:53 AM 79.0 °F 39.9 °F 25% 29.53 in 10.0 mi South 23.0 mph 28.8 mph N/A   Clear
10:53 AM 84.9 °F 37.9 °F 19% 29.49 in 10.0 mi South 21.9 mph 33.4 mph N/A   Clear
11:53 AM 86.0 °F 39.0 °F 19% 29.47 in 10.0 mi South 21.9 mph 29.9 mph N/A   Clear
12:53 PM 88.0 °F 39.9 °F 18% 29.43 in 10.0 mi South 25.3 mph 36.8 mph N/A   Clear
1:53 PM 89.1 °F 37.9 °F 16% 29.41 in 10.0 mi SSW 26.5 mph 42.6 mph N/A   Scattered Clouds
2:53 PM 89.1 °F 39.0 °F 17% 29.40 in 10.0 mi SSW 32.2 mph 46.0 mph N/A   Mostly Cloudy
3:36 PM 82.4 °F 41.0 °F 23% 29.62 in 10.0 mi West 21.9 mph 32.2 mph N/A   Mostly Cloudy
3:53 PM 82.0 °F 41.0 °F 23% 29.44 in 10.0 mi WNW 28.8 mph 32.2 mph N/A   Mostly Cloudy
4:50 PM 71.6 °F 46.4 °F 41% 29.70 in 10.0 mi NNW 20.7 mph 31.1 mph N/A   Overcast
4:53 PM 71.1 °F 46.0 °F 41% 29.54 in 10.0 mi NNW 17.3 mph 31.1 mph N/A   Mostly Cloudy
5:53 PM 66.9 °F 46.9 °F 49% 29.58 in 10.0 mi NNW 13.8 mph - N/A   Scattered Clouds
6:53 PM 57.9 °F 50.0 °F 75% 29.67 in 10.0 mi North 12.7 mph - 0.00 in Rain Light Rain
7:53 PM 55.9 °F 51.1 °F 84% 29.72 in 10.0 mi North 10.4 mph - 0.02 in   Mostly Cloudy
8:53 PM 54.0 °F 48.9 °F 83% 29.79 in 10.0 mi North 11.5 mph - 0.00 in Rain Light Rain
9:53 PM 53.1 °F 46.9 °F 80% 29.82 in 10.0 mi North 16.1 mph - 0.00 in   Mostly Cloudy
10:53 PM 51.1 °F 46.0 °F 83% 29.83 in 10.0 mi North 11.5 mph - N/A   Scattered Clouds
11:53 PM 48.9 °F 41.0 °F 74% 29.86 in 10.0 mi North 9.2 mph - N/A   Clear